TimeEST,TemperatureF,Dew PointF,Humidity,Sea Level PressureIn,VisibilityMPH,Wind Direction,Wind SpeedMPH,Gust SpeedMPH,PrecipitationIn,Events,Conditions,WindDirDegrees,DateUTC
12:51 AM,43.0,37.0,80,29.62,10.0,SW,6.9,-,N/A,,Overcast,220,2013-02-28 05:51:00
1:51 AM,43.0,37.0,80,29.61,10.0,Calm,Calm,-,N/A,,Overcast,0,2013-02-28 06:51:00
2:51 AM,42.8,37.4,81,29.61,10.0,Calm,Calm,-,N/A,,Overcast,0,2013-02-28 07:51:00
3:51 AM,43.0,37.0,80,29.61,10.0,SSW,4.6,-,N/A,,Overcast,210,2013-02-28 08:51:00
4:51 AM,42.8,37.4,81,29.61,10.0,WSW,5.8,-,N/A,,Overcast,240,2013-02-28 09:51:00
5:51 AM,42.1,36.0,79,29.61,10.0,West,4.6,-,N/A,,Overcast,260,2013-02-28 10:51:00
6:51 AM,42.1,36.0,79,29.61,10.0,WSW,5.8,-,0.00,,Overcast,240,2013-02-28 11:51:00
7:51 AM,43.0,37.0,80,29.62,10.0,SW,3.5,-,0.00,,Mostly Cloudy,230,2013-02-28 12:51:00
8:51 AM,44.6,35.6,71,29.63,10.0,WSW,5.8,-,N/A,,Mostly Cloudy,250,2013-02-28 13:51:00
9:51 AM,45.0,36.0,71,29.62,10.0,West,5.8,-,N/A,,Mostly Cloudy,270,2013-02-28 14:51:00
10:51 AM,48.0,34.0,58,29.60,10.0,Calm,Calm,-,N/A,,Mostly Cloudy,0,2013-02-28 15:51:00
11:51 AM,50.0,32.0,50,29.57,10.0,WSW,9.2,-,N/A,,Mostly Cloudy,250,2013-02-28 16:51:00
12:51 PM,48.9,30.0,48,29.56,10.0,WSW,8.1,-,N/A,,Mostly Cloudy,250,2013-02-28 17:51:00
1:51 PM,48.9,30.9,50,29.55,10.0,West,11.5,-,N/A,,Overcast,280,2013-02-28 18:51:00
2:51 PM,48.2,30.2,50,29.56,10.0,West,13.8,-,N/A,,Overcast,260,2013-02-28 19:51:00
3:51 PM,46.4,30.2,53,29.56,10.0,WNW,13.8,-,N/A,,Overcast,290,2013-02-28 20:51:00
4:51 PM,46.0,28.9,51,29.56,10.0,West,9.2,-,N/A,,Overcast,280,2013-02-28 21:51:00
5:51 PM,45.0,27.0,49,29.57,10.0,West,10.4,18.4,N/A,,Overcast,260,2013-02-28 22:51:00
6:51 PM,44.1,26.1,49,29.59,10.0,West,11.5,-,N/A,,Overcast,260,2013-02-28 23:51:00
7:51 PM,42.1,27.0,55,29.60,10.0,West,12.7,-,N/A,,Mostly Cloudy,270,2013-03-01 00:51:00
8:51 PM,42.1,28.9,60,29.61,10.0,West,12.7,-,N/A,,Mostly Cloudy,280,2013-03-01 01:51:00
9:51 PM,39.9,30.0,68,29.62,10.0,West,8.1,-,N/A,,Mostly Cloudy,280,2013-03-01 02:51:00
10:51 PM,39.0,30.0,70,29.62,10.0,West,9.2,-,N/A,,Mostly Cloudy,280,2013-03-01 03:51:00
11:51 PM,37.9,30.0,73,29.62,10.0,West,8.1,-,N/A,,Mostly Cloudy,280,2013-03-01 04:51:00